KOSEN 1
1 49402U 21102H   25312.54275146  .00013535  00000-0  58025-3 0  9992
2 49402  97.3515 354.1550 0013259 265.8215  94.1506 15.22788559220396
HO-113
1 50466U 21131B   25312.83643706  .00001021  00000-0  33109-3 0  9992
2 50466  98.5069  41.4281 0004839  51.7740 308.3884 14.41038699203372
SNUGLITE 2
1 52899U 22065F   25312.34991519  .00002046  00000-0  40217-3 0  9991
2 52899  98.1908  93.0861 0007467   6.2569 353.8725 14.63684539178681
UmKA 1 (RS40S)
1 57172U 23091G   25312.79069993  .00011253  00000-0  56336-3 0  9990
2 57172  97.5383   7.4100 0014236 161.5876 198.5876 15.17477588130541
CubeBel-2 (EU11S)
1 57175U 23091K   25312.82793022  .00018662  00000-0  79866-3 0  9998
2 57175  97.5383   9.6454 0011663 163.9955 196.1652 15.22797986130690
ENSO
1 58470U 23185J   25312.86900916  .08388928  24835-5  96914-3 0  9990
2 58470  97.3304  36.0765 0010794 270.9690  89.0371 16.36702678108938
SONATE-2
1 59112U 24043Q   25312.62421833  .00039593  00000-0  90826-3 0  9990
2 59112  97.5322  87.6721 0008850 289.6056  70.4235 15.42587266 93713
MO-122
1 60209U 24125G   25312.13351572  .00037491  00000-0  83627-3 0  9994
2 60209  97.2563 162.5455 0014734 316.2714  43.7366 15.43360433 75263
GRBBeta
1 60237U 24128C   25312.58987088  .00008692  00000-0  61419-3 0  9990
2 60237  61.9910 268.9769 0057114  89.3748 271.3888 15.04246488 73054
Curium One
1 60242U 24128H   25312.59070591  .00016622  00000-0  10478-2 0  9999
2 60242  61.9803 264.6235 0056893  86.1220 274.6375 15.07959599 73138
ROBUSTA-3A
1 60243U 24128J   25312.44748859  .00013236  00000-0  85183-3 0  9997
2 60243  61.9876 266.5153 0056894  83.4844 277.2722 15.07351996 73099
CatSat
1 60246U 24125J   25312.53698795  .00048767  00000-0  13043-2 0  9992
2 60246  97.2372 160.3576 0034579 271.4993  88.2291 15.37285260 73268
HYPERVIEW-1G (RS66S)
1 61772U 24199AP  25312.89245083  .00053074  00000-0  11462-2 0  9995
2 61772  97.3245 181.9853 0012019  15.1274 345.0331 15.44282245100381
AO-123
1 61781U 24199AY  25312.89217225  .00015025  00000-0  50198-3 0  9996
2 61781  97.3279 178.7296 0015881  23.4775 336.7188 15.30991576100163
ZIMSAT 2
1 61783U 24199BA  25312.86814289  .00162652  00000-0  19587-2 0  9993
2 61783  97.3162 184.4917 0009236  15.7336 344.4206 15.60221212103700
HADES-R (SO-124)
1 62690U 25009CK  25312.29366013  .00129633  00000-0  24722-2 0  9995
2 62690  97.3946  33.8872 0003190 256.2160 103.8735 15.47679176 45435
HYDRA-T
1 62692U 25009CM  25311.65382386  .00147067  00000-0  27337-2 0  9993
2 62692  97.3945  33.3691 0003058 254.4537 105.6376 15.48352850 45340
JINJUSat 1B
1 63210U 25052A   25312.68568855  .00025429  00000-0  10157-2 0  9998
2 63210  97.4196 205.0908 0005220 122.1956 237.9789 15.25112594 36390
NUSHSAT 1
1 63211U 25052B   25312.24269655  .00025383  00000-0  99040-3 0  9995
2 63211  97.4190 204.7314 0005007 125.9265 234.2438 15.25895305 36332
TEVEL2-4
1 63213U 25052D   25312.68892632  .00027927  00000-0  11065-2 0  9998
2 63213  97.4107 204.7944 0003787 130.6451 229.5116 15.25365969 36398
TEVEL2-5
1 63214U 25052E   25312.43051112  .00022780  00000-0  90571-3 0  9994
2 63214  97.4109 204.5300 0003757 132.2096 227.9462 15.25292637 36358
TEVEL2-6
1 63215U 25052F   25311.97750473  .00023483  00000-0  93549-3 0  9998
2 63215  97.4113 204.0707 0003698 134.1571 225.9972 15.25221291 36287
TEVEL2-1
1 63217U 25052H   25312.21000384  .00022258  00000-0  89455-3 0  9997
2 63217  97.4086 204.1401 0003316 145.6351 214.5102 15.24938625 36318
TEVEL2-3
1 63218U 25052J   25312.66894806  .00027555  00000-0  11045-2 0  9991
2 63218  97.4083 204.5986 0003304 144.9505 215.1951 15.24980885 36389
TEVEL2-2
1 63219U 25052K   25312.21078684  .00022499  00000-0  90414-3 0  9991
2 63219  97.4087 204.1408 0003295 147.0397 213.1047 15.24939490 36314
TEVEL2-9
1 63237U 25052AD  25312.66634823  .00026356  00000-0  11020-2 0  9994
2 63237  97.4147 204.3449 0006285 185.4230 174.6940 15.23558351 36351
TEVEL2-7
1 63238U 25052AE  25312.48012500  .00020383  00000-0  85705-3 0  9993
2 63238  97.4151 204.1413 0006311 185.5970 174.5197 15.23419766 36324
TEVEL2-8
1 63239U 25052AF  25312.74789912  .00024852  00000-0  10441-2 0  9990
2 63239  97.4145 204.3921 0006380 185.2469 174.8702 15.23408397 36367
HYDRA-W
1 63490U 25052BL  25311.25088177  .00073274  00000-0  21125-2 0  9992
2 63490  97.4077 204.6824 0007440 173.8912 186.2423 15.35418373 36263
HADES-ICM (SO-125)
1 63492U 25052BN  25311.99087865  .00065054  00000-0  19526-2 0  9997
2 63492  97.4098 205.2407 0007748 178.1425 181.9848 15.34182164 36369
Dragonfly
1 65729U 98067XH  25312.21918802  .00126601  00000-0  14522-2 0  9995
2 65729  51.6309 311.0278 0004179  94.3168 265.8303 15.61151461  7756
RSP-03
1 65732U 98067XL  25312.23650742  .00104024  00000-0  12558-2 0  9999
2 65732  51.6306 311.1442 0006090  72.0138 288.1519 15.59903348  7769
GHS-01
1 65733U 98067XM  25312.71941551  .00160632  00000-0  17618-2 0  9993
2 65733  51.6318 308.3701 0004767  93.0954 267.0585 15.62176689  7849
BOTAN
1 65942U 98067XP  25312.23052238  .00095447  00000-0  13745-2 0  9995
2 65942  51.6318 312.6015 0004709  39.0396 321.0934 15.55235340  4481
